Change the Weather History Date:

Wednesday, May 1, 2013

  Actual Average Record
Temperature  
Mean Temperature 70 °F -  
Max Temperature 82 °F 83 °F 87 °F (2001)
Min Temperature 57 °F 58 °F 51 °F (2006)
Cooling Degree Days 4    
Growing Degree Days 20 (Base 50)    
Moisture  
Dew Point 56 °F    
Average Humidity 64    
Maximum Humidity 84    
Minimum Humidity 39    
Precipitation  
Precipitation 0.00 in - - ()
Sea Level Pressure  
Sea Level Pressure 29.87 in    
Wind  
Wind Speed 13 mph ()    
Max Wind Speed 90 mph    
Max Gust Speed -    
Visibility 10.6 miles    
Events      
Averages and records for this station are not official NWS values.
T = Trace of Precipitation, MM = Missing Value Source: Averaged Metar Reports

Daily Weather History Graph

Daily Weather History Graph

Search for Another Location

Airport or City:

Trip Planner

Search our weather history database for the weather conditions in past years. The results will help you decide how hot, cold, wet, or windy it might be!

Date:

Astronomy

May. 01, 2013 Rise Set
Actual Time 6:31 AM MDT 7:32 PM MDT
Civil Twilight 6:07 AM MDT 7:56 PM MDT
Nautical Twilight 5:40 AM MDT 8:24 PM MDT
Astronomical Twilight 5:11 AM MDT 8:53 PM MDT
Moon 12:42 AM MDT 12:12 PM MDT
Length of Visible Light 13h 48m
Length of Day
13h 01m
Waning Gibbous, 58% of the Moon is Illuminated
May 1
Waning Gibbous
May 2
Last Quarter
May 9
New
May 17
First Quarter
May 24
Full

Hourly Weather History & Observations

Time (MDT) Temp. Heat Index Dew Point Humidity Pressure Visibility Wind Dir Wind Speed Gust Speed Precip Events Conditions
12:40 AM 60.8 °F - 55.4 °F 82% 29.90 in 10.0 mi ENE 6.9 mph - N/A   Scattered Clouds
1:40 AM 60.8 °F - 53.6 °F 77% 29.90 in 10.0 mi ENE 6.9 mph - N/A   Scattered Clouds
2:41 AM 60.8 °F - 51.8 °F 72% 29.89 in 10.0 mi NNE 89.8 mph - N/A   Scattered Clouds
3:41 AM 60.8 °F - 53.6 °F 77% 29.89 in 8.0 mi NNE 8.1 mph - N/A   Mostly Cloudy
4:40 AM 59.0 °F - 51.8 °F 77% 29.89 in 8.0 mi North 9.2 mph - N/A   Mostly Cloudy
5:50 AM 57.2 °F - 51.8 °F 82% 29.89 in 8.0 mi North 9.2 mph - N/A   Mostly Cloudy
6:53 AM 59.0 °F - 51.8 °F 77% 29.90 in 8.0 mi NNE 9.2 mph - N/A   Mostly Cloudy
7:43 AM 62.6 °F - 53.6 °F 72% 29.92 in 10.0 mi North 9.2 mph - N/A   Scattered Clouds
8:41 AM 68.0 °F - 57.2 °F 68% 29.92 in 12.0 mi North 8.1 mph - N/A   Mostly Cloudy
9:42 AM 71.6 °F - 57.2 °F 60% 29.93 in 12.0 mi ESE 6.9 mph - N/A   Mostly Cloudy
10:41 AM 75.2 °F - 57.2 °F 53% 29.92 in 12.0 mi SSW 5.8 mph - N/A   Mostly Cloudy
11:47 AM 78.8 °F - 57.2 °F 47% 29.89 in 12.0 mi SSW 13.8 mph - N/A   Mostly Cloudy
12:40 PM 80.6 °F 86.2 °F 75.2 °F 84% 29.88 in 12.0 mi SSW 11.5 mph - N/A   Mostly Cloudy
1:45 PM 80.6 °F 80.8 °F 57.2 °F 45% 29.87 in 12.0 mi SSW 10.4 mph - N/A   Mostly Cloudy
2:40 PM 82.4 °F 81.7 °F 55.4 °F 39% 29.85 in 12.0 mi SW 13.8 mph - N/A   Scattered Clouds
3:47 PM 80.6 °F 80.5 °F 55.4 °F 42% 29.84 in 12.0 mi SW 16.1 mph - N/A   Scattered Clouds
4:43 PM 78.8 °F - 59.0 °F 51% 29.82 in 12.0 mi WSW 15.0 mph - N/A   Scattered Clouds
5:43 PM 78.8 °F - 59.0 °F 51% 29.79 in 12.0 mi West 13.8 mph - N/A   Scattered Clouds
6:43 PM 75.2 °F - 57.2 °F 53% 29.82 in 12.0 mi West 15.0 mph - N/A   Mostly Cloudy
7:42 PM 71.6 °F - 57.2 °F 60% 29.84 in 10.0 mi West 11.5 mph - N/A   Mostly Cloudy
8:43 PM 69.8 °F - 57.2 °F 64% 29.85 in 10.0 mi WNW 9.2 mph - N/A   Mostly Cloudy
9:50 PM 68.0 °F - 57.2 °F 68% 29.86 in 10.0 mi NNW 8.1 mph - N/A   Scattered Clouds
10:41 PM 66.2 °F - 57.2 °F 73% 29.87 in 10.0 mi WNW 8.1 mph - N/A   Scattered Clouds
11:46 PM 64.4 °F - 55.4 °F 73% 29.87 in 10.0 mi SSW 5.8 mph - N/A   Partly Cloudy